sat.trackr.live / text

‹ back to catalog

PROGRESS-MS 34

NORAD 68837 · 2026-093A

PAYLOAD ACTIVE UNKNOWN

§ Identity

Operator
Country
CIS
Launch date
2026-04-25
Launch site
TYMSC
Launch vehicle
Mass (kg)
RCS (m²)

Purposes: station

External: N2YO · Heavens-Above · Gunter

§ Orbital elements

Epoch: 2026-05-24T20:12:03.198816Z

Period
92.94 min
Inclination
51.6327°
Eccentricity
0.0007493
Mean motion
15.49354393 rev/d
Perigee alt
413.5 km
Apogee alt
423.7 km
Semi-major
6,796.8 km
B*
1.6754e-4
RAAN
55.6720°
Arg perigee
94.5162°
Mean anomaly
265.6683°
Rev number
56,822

§ Raw data

PROGRESS-MS 341 68837U 26093A   26144.84170369  .00008909  00000+0  16754-3 0  99982 68837  51.6327  55.6720 0007493  94.5162 265.6683 15.49354393568228

JSON: /api/v1/satellites/68837 · /tle

For live sub-satellite position, see the globe view (requires WebGL).

§ Visibility from observer

Set your observer location to see the next 7 days of passes ≥ 10°. The values pass through the URL so the page stays shareable.

No JS? Fill the form by hand. The geolocation button needs JavaScript.